Regional Weather Roundup
Issued by NWS Midland/Odessa, TX

Skip options and go directly to product.
Home | Oldest Version | Next Version | Current Version | All | Text Only | Save Text | Print | Product List | Glossary On

Skip product version selection by date and time.   
217
ASUS44 KMAF 271401
RWRMAF
MIDLAND AREA WEATHER ROUNDUP
NATIONAL WEATHER SERVICE MIDLAND TX
800 AM CST TUE JAN 27 2015

...IN SOUTHWEST TEXAS AND SOUTHEAST NEW MEXICO...

CITY           SKY/WX    TMP DP  RH WIND       PRES   REMARKS
ALPINE         MOCLDY    43  29  56 SW7       30.36R WCI  39
ANDREWS        FAIR      40  32  73 NW5       30.24R WCI  37
ARTESIA        PTCLDY    34  32  93 NW6       30.30R WCI  29
BIG SPRING     CLEAR     33  30  89 CALM      30.26R
CARLSBAD       CLEAR     34  30  85 NW6       30.27R WCI  29
DRYDEN           N/A     47  36  65 W7        30.23R
FORT STOCKTON  CLEAR     45  35  68 SW8       30.28R
GUAD PASS      NOT AVBL
HOBBS          CLEAR     36  32  87 W7        30.27R WCI  30
MARFA          CLOUDY    37  34  87 CALM      30.34R
MIDLAND AIRPK  PTCLDY    40  33  75 CALM      30.25R
MIDLAND INTL   PTCLDY    38  31  76 NW5       30.24R WCI  34
ODESSA         PTCLDY    36  30  79 NW3       30.25R
PECOS          CLEAR     39  35  86 W8        30.28R WCI  33
PRESIDIO       PTSUNNY   43  38  83 CALM      30.31R
SEMINOLE       PTCLDY    37  32  81 NW9       30.26R WCI  31
SNYDER         CLEAR    N/A N/A N/A CALM      30.23R
WINK           PTCLDY    32  27  81 N7        30.26R WCI  26
$$
...OTHER STATIONS IN TEXAS...

CITY           SKY/WX    TMP DP  RH WIND       PRES   REMARKS
ABILENE        CLEAR     40  33  76 S5        30.21R WCI  37
AMARILLO       CLEAR     41  31  67 W6        30.23R WCI  37
AUSTIN         PTCLDY    42  37  82 S5        30.17R WCI  39
BROWNSVILLE    CLEAR     51  49  92 SW5       30.22R
CORPUS CHRISTI PTCLDY    48  40  73 W6        30.21R
DALLAS FTW     PTCLDY    44  36  73 S5        30.15R
DEL RIO        PTCLDY    44  38  79 CALM      30.22R
EL PASO        CLOUDY    46  34  62 N5        30.31R
HOUSTON INT    PTCLDY    51  41  68 W3        30.14R
LUBBOCK        MOCLDY    34  31  88 W7        30.24R WCI  28
SAN ANGELO     CLEAR     35  32  88 SW3       30.23R
SAN ANTONIO    PTCLDY    46  36  68 W5        30.20R
WACO           PTCLDY    41  38  89 SW3       30.16R
WICHITA FALLS  NOT AVBL
$$
...OTHER LOCATIONS IN NEW MEXICO...

CITY           SKY/WX    TMP DP  RH WIND       PRES   REMARKS
ALAMAGORDO     PTCLDY    36  27  69 E3        30.32R
ALBUQUERQUE    PTCLDY    34  26  72 W7        30.35R WCI  28
CANNON AFB     PTCLDY    39  29  68 NW6       30.26R WCI  34
CLOVIS         PTCLDY    37  28  70 NW6       30.26R WCI  33
HOLLOMAN AFB   PTCLDY    36  30  79 S3        30.31R
ROSWELL        PTCLDY    29  26  89 SW5       30.29R WCI  24
RUIDOSO        PTCLDY    41  18  38 W7        30.36S WCI  36
SANTA FE       PTCLDY    33  24  69 N17       30.35R WCI  22
TRUTH OR CONSE CLOUDY    42  31  64 NE5       30.33R WCI  39
TUCUMCARI        N/A    N/A N/A N/A MISG      30.25R
$$

USA.gov is the U.S. government's official web portal to all federal, state and local government web resources and services.